2019-036W (44359 NORAD) Tracking and Keplerian Element Data

This shows tracking and keplerian element data for the satellite.

Feedback or suggestion? Click here.




ElementValue
Catalog44359
Name2019-036W
Epoch Orbit397
Epoch Day203.83641018
Epoch Year2019
RAAN21.4415
Inclination28.5239
Eccentricity0.0389833
Argument of Perigee36.8929
Mean Anonmoly325.783
Mean Motion14.98773628
Decay Rate0.00022814
L11 44359U 19036W 19203.83641018 .00022814 00000-0 33128-3 0 9997
L22 44359 28.5239 21.4415 0389833 36.8929 325.7830 14.98773628 3976

Live tracking and technical data element details for 2019-036W (NORAD 44359). 2019-036W can be tracked NOW for your location showing map with azimuth and elevation plus other details from your city location.

Track the satellite on the map from your city or location and see movement details for azimuth, elevation, latitude, longitude, range, height, and movement on the map or in text.







IsCatalogInMostPopularTable: catalog: 44359, numindb: 17
Update: records affected: 1



GetName: 44359 2019-036W

Hit Count: updated at: Wed, 23 Oct 2019 00:25:08 GMT